Regional Weather Roundup
Issued by NWS

Home | Current Version | Previous Version | Text Only | Print | Product List | Glossary On
Versions: 1 2 3 4 5 6 7 8 9 10 11 12 13 14 15 16 17 18 19 20 21 22 23 24 25 26 27 28
000
ASUS45 KGTF 252210
RWRMT
MONTANA HOURLY WEATHER ROUNDUP
NATIONAL WEATHER SERVICE GREAT FALLS MT
400 PM MDT SAT APR 25 2015

NOTE: "FAIR" INDICATES FEW OR NO CLOUDS BELOW 12000 FEET WITH NO
SIGNIFICANT WEATHER AND/OR OBSTRUCTIONS TO VISIBILITY.

MTZ001>007-043-252300-
WEST OF THE DIVIDE

CITY           SKY/WX    TMP DP  RH WIND       PRES   REMARKS
KALISPELL      PTCLDY    54  22  28 W10       29.79F
MISSOULA       PTSUNNY   54  22  28 SW10      29.80S
BUTTE          CLOUDY    43  24  47 W9        29.80R
DEER LODGE       N/A     50  18  27 N6        29.82S
EUREKA           N/A     55  23  28 CALM      29.81S
HAMILTON         N/A     54  18  24 NE5       29.76F
LIBBY            N/A     46  34  61 E7        29.86S
$$

MTZ008-052>055-252300-
SOUTHWEST MONTANA

CITY           SKY/WX    TMP DP  RH WIND       PRES   REMARKS
BOZEMAN        MOSUNNY   48  31  51 CALM      29.80F
DILLON         CLOUDY    46  30  53 S9        29.76S
$$

MTZ009-010-012-014-046-048-049-054-252300-
EAST SLOPES AND CENTRAL MONTANA

CITY           SKY/WX    TMP DP  RH WIND       PRES   REMARKS
CUT BANK       CLOUDY    48  24  39 N13       29.82S
GREAT FALLS    CLOUDY    54  24  31 N8        29.80S
HELENA         PTSUNNY   54  25  32 NE7       29.77S
$$

MTZ011-013-016-021-045-047-050-051-252300-
NORTH CENTRAL MONTANA

CITY           SKY/WX    TMP DP  RH WIND       PRES   REMARKS
HAVRE          CLOUDY    52  33  48 NW18G29   29.81R
LEWISTOWN      CLOUDY    49  31  49 NW9       29.82R
CHINOOK          N/A     54  34  47 NW15G22   29.80R
FORT BENTON      N/A     54  30  40 N9        29.82R
$$

MTZ017>020-022>042-056>058-061-062-252300-
EASTERN PLAINS

CITY           SKY/WX    TMP DP  RH WIND       PRES   REMARKS
BAKER          CLOUDY    50  41  71 W26G38    29.76R
BILLINGS       PTSUNNY   47  37  68 E9        29.82S
GLASGOW        LGT RAIN  44  41  89 W13       29.76R FOG
JORDAN           N/A     46  42  86 W14       29.78S
LIVINGSTON     CLOUDY    48  33  56 VRB6      29.79S
MILES CITY     LGT RAIN  43  32  65 NW10      29.80R
SIDNEY         CLOUDY    55  43  62 E14       29.73R
WOLF POINT     RAIN      47  43  86 W15       29.73R FOG
BIG TIMBER       N/A     46  34  61 E8        29.81S
FORSYTH          N/A     45  39  81 W13G21    29.81R
PLENTYWOOD       N/A     52  43  71 E22       29.71F
POPLAR           N/A     50  43  76 SW20G26   29.72R
$$

REGIONAL REPORTS...DAKOTAS

CITY           SKY/WX    TMP DP  RH WIND       PRES   REMARKS
WILLISTON      CLOUDY    57  43  59 SE15G25   29.73F
MINOT          CLOUDY    57  39  51 SE16      29.80S
DICKINSON      CLOUDY    49  43  80 SE18      29.74F
BEACH          CLOUDY    50  46  87 SE21      29.74R
CROSBY         MOCLDY    55  41  58 SE20G28   29.77S
WATFORD CITY   CLOUDY    55  43  62 SE20G25   29.72F
BISMARCK       CLOUDY    50  42  74 SE12      29.83R
GRAND FORKS    PTSUNNY   63  38  39 S12       29.87S
FARGO          MOSUNNY   61  38  42 S9G20     29.88R
BUFFALO SD       N/A     49  44  83 SE10      29.69R
RAPID CITY     CLOUDY    51  46  83 S10       29.73R
$$

REGIONAL REPORTS...WYOMING/IDAHO/WASHINGTON

CITY           SKY/WX    TMP DP  RH WIND       PRES   REMARKS
GILLETTE       CLOUDY    45  36  70 NW17      29.77R
SHERIDAN       CLOUDY    45  35  68 N13       29.81S
BUFFALO WY     CLOUDY    44  35  70 N24G35    29.78F
CODY           CLOUDY    46  36  66 N9        29.79S
YELLOWSTONE LA   N/A     39  24  55 W8        29.82F
IDAHO FALLS    PTSUNNY   54  23  30 S9        29.75F
SALMON         PTSUNNY   54  27  35 N9        29.72F
BOISE          PTSUNNY   58  24  27 NW12      29.76F
SPOKANE        CLOUDY    50  31  48 SW8       29.86F
$$

REGIONAL REPORTS...ALBERTA

CITY           SKY/WX    TMP DP  RH WIND       PRES   REMARKS
EDMONTON       PTSUNNY   43  16  33 E8        30.00S
CALGARY        CLOUDY    39  28  65 N21G26    29.93R WCI  29
LETHBRIDGE     PTSUNNY   46  30  53 NE15G31   29.87R
MEDICINE HAT   CLOUDY    39  34  81 N13       29.89R WCI  32
$$

REGIONAL REPORTS...SASKATCHEWAN

CITY           SKY/WX    TMP DP  RH WIND       PRES   REMARKS
SWIFT CURRENT  CLOUDY    34  34 100 N12       29.79S FOG     WCI  25
REGINA         CLOUDY    46  43  87 SE20G30   29.78F
SASKATOON      SNOW      30  30 100 NE17G25   29.92R VSB 1/2 WCI  18
$$



USA.gov is the U.S. government's official web portal to all federal, state and local government web resources and services.